,,Stat6,,Stat2,,Stat8,,Stat9,,Stat10,,Wind1,,Wind1,
time,status,PA1M_AVG,status,PR1M_SUM,status,RH1M_AVG,status,SR1M_AVG,status,TA1M_AVG,status,W1dAve1m,status,W1sAve1m,
2004-06-14, 00:00:00,VALID,918.783,VALID,0,VALID,100,VALID,-0.0169808,VALID,17.6541,VALID,95,VALID,0.682165,
2004-06-14, 00:01:00,VALID,918.79,VALID,0,VALID,99.9939,VALID,-0.0679233,VALID,17.7219,VALID,89,VALID,0.739169,
2004-06-14, 00:02:00,VALID,918.795,VALID,0,VALID,99.973,VALID,-0.0169808,VALID,17.6728,VALID,77,VALID,0.887607,
2004-06-14, 00:03:00,VALID,918.799,VALID,0,VALID,99.9728,VALID,-0.0169808,VALID,17.6862,VALID,73,VALID,0.740282,
2004-06-14, 00:04:00,VALID,918.814,VALID,0,VALID,99.8512,VALID,-0.0339617,VALID,17.6898,VALID,73,VALID,0.62157,
2004-06-14, 00:05:00,VALID,918.805,VALID,0,VALID,99.6658,VALID,-0.0169808,VALID,17.67,VALID,80,VALID,0.532885,
2004-06-14, 00:06:00,VALID,918.799,VALID,0,VALID,99.2195,VALID,0,VALID,17.6283,VALID,116,VALID,0.839844,
2004-06-14, 00:07:00,VALID,918.8,VALID,0,VALID,99.3708,VALID,-0.0169808,VALID,17.6025,VALID,109,VALID,0.586868,
2004-06-14, 00:08:00,VALID,918.82,VALID,0,VALID,99.0364,VALID,-0.0169808,VALID,17.5379,VALID,84,VALID,0.653888,
2004-06-14, 00:09:00,VALID,918.831,VALID,0,VALID,99.1508,VALID,-0.0169808,VALID,17.5057,VALID,73,VALID,0.901708,
2004-06-14, 00:10:00,VALID,918.825,VALID,0,VALID,99.3568,VALID,-0.0339617,VALID,17.5225,VALID,71,VALID,0.951215,
2004-06-14, 00:11:00,VALID,918.801,VALID,0,VALID,99.6684,VALID,-0.0679233,VALID,17.5442,VALID,71,VALID,0.847656,
2004-06-14, 00:12:00,VALID,918.792,VALID,0,VALID,99.7116,VALID,-0.0679233,VALID,17.5799,VALID,71,VALID,0.564546,
2004-06-14, 00:13:00,VALID,918.788,VALID,0,VALID,99.3619,VALID,-0.0339617,VALID,17.5801,VALID,118,VALID,0.76875,
2004-06-14, 00:14:00,VALID,918.77,VALID,0,VALID,98.9944,VALID,-0.0509425,VALID,17.5222,VALID,134,VALID,0.72017,
2004-06-14, 00:15:00,VALID,918.754,VALID,0,VALID,99.147,VALID,-0.0509425,VALID,17.49,VALID,134,VALID,0.959847,
2004-06-14, 00:16:00,VALID,918.746,VALID,0,VALID,99.6671,VALID,-0.0509425,VALID,17.5218,VALID,131,VALID,1.17588,
2004-06-14, 00:17:00,VALID,918.736,VALID,0,VALID,99.9853,VALID,-0.0169808,VALID,17.6023,VALID,127,VALID,1.47191,
2004-06-14, 00:18:00,VALID,918.736,VALID,0,VALID,100,VALID,0,VALID,17.7219,VALID,117,VALID,1.58073,
2004-06-14, 00:19:00,VALID,918.718,VALID,0,VALID,99.8258,VALID,-0.0339617,VALID,17.8028,VALID,102,VALID,1.04581,
2004-06-14, 00:20:00,VALID,918.71,VALID,0,VALID,99.0211,VALID,-0.0339617,VALID,17.803,VALID,101,VALID,0.661184,
2004-06-14, 00:21:00,VALID,918.699,VALID,0,VALID,98.2327,VALID,-0.0509425,VALID,17.7387,VALID,108,VALID,0.494318,
2004-06-14, 00:22:00,VALID,918.688,VALID,0,VALID,97.7292,VALID,0,VALID,17.6668,VALID,123,VALID,0.760045,
2004-06-14, 00:23:00,VALID,918.664,VALID,0,VALID,97.953,VALID,-0.0169808,VALID,17.6122,VALID,130,VALID,0.828488,
2004-06-14, 00:24:00,VALID,918.647,VALID,0,VALID,98.173,VALID,-0.0339617,VALID,17.5861,VALID,121,VALID,0.795785,
2004-06-14, 00:25:00,VALID,918.61,VALID,0,VALID,98.4298,VALID,-0.0339617,VALID,17.5769,VALID,108,VALID,0.95957,
2004-06-14, 00:26:00,VALID,918.593,VALID,0,VALID,98.0725,VALID,-0.0169808,VALID,17.5153,VALID,96,VALID,0.697856,
2004-06-14, 00:27:00,VALID,918.546,VALID,0,VALID,98.4273,VALID,0,VALID,17.4768,VALID,96,VALID,0.590774,
2004-06-14, 00:28:00,VALID,918.525,VALID,0,VALID,98.6918,VALID,-0.0509425,VALID,17.4766,VALID,114,VALID,0.795732,
2004-06-14, 00:29:00,VALID,918.519,VALID,0,VALID,98.7617,VALID,-0.0509425,VALID,17.4607,VALID,130,VALID,1.23047,
2004-06-14, 00:30:00,VALID,918.493,VALID,0,VALID,99.2475,VALID,-0.0169808,VALID,17.4766,VALID,119,VALID,1.61446,
2004-06-14, 00:31:00,VALID,918.482,VALID,0,VALID,99.4128,VALID,-0.0339617,VALID,17.5444,VALID,109,VALID,1.04847,
2004-06-14, 00:32:00,VALID,918.49,VALID,0,VALID,99.0326,VALID,-0.0339617,VALID,17.5612,VALID,115,VALID,0.666109,
2004-06-14, 00:33:00,VALID,918.496,VALID,0,VALID,98.7884,VALID,-0.0169808,VALID,17.5409,VALID,127,VALID,0.981399,
2004-06-14, 00:34:00,VALID,918.495,VALID,0,VALID,98.7274,VALID,-0.0339617,VALID,17.561,VALID,117,VALID,1.2935,
2004-06-14, 00:35:00,VALID,918.5,VALID,0,VALID,98.8139,VALID,-0.0339617,VALID,17.5799,VALID,103,VALID,1.1002,
2004-06-14, 00:36:00,VALID,918.5,VALID,0,VALID,98.6969,VALID,-0.0339617,VALID,17.6023,VALID,92,VALID,0.99564,
2004-06-14, 00:37:00,VALID,918.505,VALID,0,VALID,98.4413,VALID,-0.0339617,VALID,17.6287,VALID,96,VALID,0.985709,
2004-06-14, 00:38:00,VALID,918.497,VALID,0,VALID,98.3751,VALID,-0.0509425,VALID,17.6578,VALID,115,VALID,1.2433,
2004-06-14, 00:39:00,VALID,918.5,VALID,0,VALID,98.1997,VALID,-0.0679233,VALID,17.667,VALID,110,VALID,1.29036,
2004-06-14, 00:40:00,VALID,918.509,VALID,0,VALID,98.1412,VALID,-0.0339617,VALID,17.6834,VALID,112,VALID,1.12553,
2004-06-14, 00:41:00,VALID,918.49,VALID,0,VALID,97.9911,VALID,-0.0509425,VALID,17.6866,VALID,109,VALID,1.09288,
2004-06-14, 00:42:00,VALID,918.483,VALID,0,VALID,97.986,VALID,-0.0339617,VALID,17.667,VALID,112,VALID,1.2166,
2004-06-14, 00:43:00,VALID,918.452,VALID,0,VALID,98.1691,VALID,-0.0679233,VALID,17.67,VALID,114,VALID,1.67435,
2004-06-14, 00:44:00,VALID,918.429,VALID,0,VALID,98.3039,VALID,-0.0849042,VALID,17.7131,VALID,114,VALID,1.59654,
2004-06-14, 00:45:00,VALID,918.407,VALID,0,VALID,98.0712,VALID,-0.0339617,VALID,17.7187,VALID,115,VALID,1.66146,
2004-06-14, 00:46:00,VALID,918.413,VALID,0,VALID,97.6999,VALID,-0.0679233,VALID,17.7327,VALID,114,VALID,1.37678,
2004-06-14, 00:47:00,VALID,918.398,VALID,0,VALID,97.3604,VALID,-0.0849042,VALID,17.7097,VALID,126,VALID,1.39648,
2004-06-14, 00:48:00,VALID,918.391,VALID,0,VALID,97.3172,VALID,-0.0849042,VALID,17.6804,VALID,130,VALID,1.48209,
2004-06-14, 00:49:00,VALID,918.356,VALID,0,VALID,97.2701,VALID,-0.0509425,VALID,17.6868,VALID,123,VALID,1.39416,
2004-06-14, 00:50:00,VALID,918.319,VALID,0,VALID,97.1074,VALID,-0.0169808,VALID,17.6707,VALID,119,VALID,1.43223,
2004-06-14, 00:51:00,VALID,918.304,VALID,0,VALID,97.3223,VALID,-0.0679233,VALID,17.6735,VALID,114,VALID,1.34561,
2004-06-14, 00:52:00,VALID,918.284,VALID,0,VALID,97.2193,VALID,-0.0509425,VALID,17.6933,VALID,121,VALID,1.46181,
2004-06-14, 00:53:00,VALID,918.262,VALID,0,VALID,97.1824,VALID,-0.0509425,VALID,17.6998,VALID,119,VALID,1.49346,
2004-06-14, 00:54:00,VALID,918.257,VALID,0,VALID,97.0743,VALID,-0.0679233,VALID,17.7127,VALID,119,VALID,1.59141,
2004-06-14, 00:55:00,VALID,918.232,VALID,0,VALID,97.0145,VALID,-0.0169808,VALID,17.7419,VALID,115,VALID,1.53869,
2004-06-14, 00:56:00,VALID,918.213,VALID,0,VALID,97.0463,VALID,-0.0169808,VALID,17.7477,VALID,114,VALID,1.58501,
2004-06-14, 00:57:00,VALID,918.222,VALID,0,VALID,97.162,VALID,-0.0339617,VALID,17.7966,VALID,109,VALID,1.60665,
2004-06-14, 00:58:00,VALID,918.227,VALID,0,VALID,97.1239,VALID,-0.101885,VALID,17.819,VALID,104,VALID,1.46742,
2004-06-14, 00:59:00,VALID,918.232,VALID,0,VALID,96.9293,VALID,-0.0509425,VALID,17.8611,VALID,109,VALID,1.09393,
2004-06-14, 01:00:00,VALID,918.218,VALID,0,VALID,96.8327,VALID,-0.0339617,VALID,17.8777,VALID,113,VALID,1.54375,
2004-06-14, 01:01:00,VALID,918.216,VALID,0,VALID,96.8327,VALID,0.0169808,VALID,17.896,VALID,108,VALID,1.6339,
2004-06-14, 01:02:00,VALID,918.2,VALID,0,VALID,96.647,VALID,-0.0169808,VALID,17.922,VALID,115,VALID,1.57109,
2004-06-14, 01:03:00,VALID,918.196,VALID,0,VALID,96.4118,VALID,-0.0509425,VALID,17.9321,VALID,115,VALID,1.5917,
2004-06-14, 01:04:00,VALID,918.182,VALID,0,VALID,96.4805,VALID,-0.0339617,VALID,17.9257,VALID,114,VALID,1.69754,
2004-06-14, 01:05:00,VALID,918.172,VALID,0,VALID,96.5657,VALID,-0.0679233,VALID,17.8994,VALID,115,VALID,1.68169,
2004-06-14, 01:06:00,VALID,918.168,VALID,0,VALID,96.5555,VALID,-0.0339617,VALID,17.9059,VALID,115,VALID,1.85954,
2004-06-14, 01:07:00,VALID,918.177,VALID,0,VALID,96.4105,VALID,-0.101885,VALID,17.9289,VALID,118,VALID,1.66276,
2004-06-14, 01:08:00,VALID,918.167,VALID,0,VALID,96.2681,VALID,-0.0679233,VALID,17.9358,VALID,113,VALID,1.80888,
2004-06-14, 01:09:00,VALID,918.145,VALID,0,VALID,95.9782,VALID,-0.0679233,VALID,17.9218,VALID,117,VALID,1.8763,
2004-06-14, 01:10:00,VALID,918.158,VALID,0,VALID,95.9286,VALID,-0.0509425,VALID,17.9285,VALID,113,VALID,1.81795,
2004-06-14, 01:11:00,VALID,918.133,VALID,0,VALID,95.9388,VALID,-0.0679233,VALID,17.9289,VALID,114,VALID,1.61719,
2004-06-14, 01:12:00,VALID,918.107,VALID,0,VALID,95.8815,VALID,-0.0509425,VALID,17.9257,VALID,116,VALID,1.82168,
2004-06-14, 01:13:00,VALID,918.083,VALID,0,VALID,95.7111,VALID,-0.0169808,VALID,17.9225,VALID,114,VALID,1.67896,
2004-06-14, 01:14:00,VALID,918.085,VALID,0,VALID,95.4568,VALID,-0.0509425,VALID,17.9156,VALID,115,VALID,1.75586,
2004-06-14, 01:15:00,VALID,918.092,VALID,0,VALID,95.1758,VALID,-0.0679233,VALID,17.9063,VALID,110,VALID,1.62518,
2004-06-14, 01:16:00,VALID,918.101,VALID,0,VALID,94.8553,VALID,-0.0849042,VALID,17.9096,VALID,117,VALID,1.63938,
2004-06-14, 01:17:00,VALID,918.102,VALID,0,VALID,94.6659,VALID,-0.0679233,VALID,17.8932,VALID,119,VALID,1.5496,
2004-06-14, 01:18:00,VALID,918.113,VALID,0,VALID,94.5196,VALID,-0.0679233,VALID,17.877,VALID,120,VALID,1.40701,
2004-06-14, 01:19:00,VALID,918.108,VALID,0,VALID,94.601,VALID,-0.0169808,VALID,17.8478,VALID,116,VALID,1.63826,
2004-06-14, 01:20:00,VALID,918.082,VALID,0,VALID,94.4294,VALID,-0.0169808,VALID,17.8415,VALID,115,VALID,1.63299,
2004-06-14, 01:21:00,VALID,918.051,VALID,0,VALID,94.3187,VALID,0,VALID,17.8508,VALID,106,VALID,1.55781,
2004-06-14, 01:22:00,VALID,918.031,VALID,0,VALID,94.0682,VALID,-0.0509425,VALID,17.8798,VALID,109,VALID,1.71566,
2004-06-14, 01:23:00,VALID,917.984,VALID,0,VALID,93.8215,VALID,-0.0339617,VALID,17.9061,VALID,114,VALID,1.59126,
2004-06-14, 01:24:00,VALID,917.961,VALID,0,VALID,93.7719,VALID,-0.0169808,VALID,17.9156,VALID,112,VALID,1.69085,
2004-06-14, 01:25:00,VALID,917.938,VALID,0,VALID,93.7694,VALID,-0.0169808,VALID,17.9091,VALID,118,VALID,1.66164,
2004-06-14, 01:26:00,VALID,917.943,VALID,0,VALID,93.7173,VALID,-0.0509425,VALID,17.8867,VALID,123,VALID,1.51334,
2004-06-14, 01:27:00,VALID,917.937,VALID,0,VALID,93.7541,VALID,0,VALID,17.822,VALID,125,VALID,1.35292,
2004-06-14, 01:28:00,VALID,917.925,VALID,0,VALID,93.9652,VALID,-0.0169808,VALID,17.7482,VALID,126,VALID,1.72238,
2004-06-14, 01:29:00,VALID,917.927,VALID,0,VALID,93.9805,VALID,-0.0509425,VALID,17.7058,VALID,119,VALID,1.7314,
2004-06-14, 01:30:00,VALID,917.911,VALID,0,VALID,93.6804,VALID,-0.0169808,VALID,17.7256,VALID,120,VALID,1.88009,
2004-06-14, 01:31:00,VALID,917.898,VALID,0,VALID,93.3523,VALID,-0.0509425,VALID,17.7576,VALID,112,VALID,1.58457,
2004-06-14, 01:32:00,VALID,917.865,VALID,0,VALID,93.1361,VALID,-0.0339617,VALID,17.7774,VALID,113,VALID,1.64342,
2004-06-14, 01:33:00,VALID,917.833,VALID,0,VALID,92.8691,VALID,-0.0339617,VALID,17.8095,VALID,109,VALID,1.48383,
2004-06-14, 01:34:00,VALID,917.799,VALID,0,VALID,92.6733,VALID,-0.0339617,VALID,17.8254,VALID,109,VALID,1.62444,
2004-06-14, 01:35:00,VALID,917.785,VALID,0,VALID,92.5283,VALID,-0.0509425,VALID,17.8515,VALID,118,VALID,1.8949,
2004-06-14, 01:36:00,VALID,917.762,VALID,0,VALID,91.9218,VALID,0,VALID,17.8803,VALID,122,VALID,1.75095,
2004-06-14, 01:37:00,VALID,917.748,VALID,0,VALID,91.9027,VALID,0,VALID,17.9091,VALID,125,VALID,1.80503,
2004-06-14, 01:38:00,VALID,917.735,VALID,0,VALID,92.1278,VALID,0,VALID,17.89,VALID,120,VALID,1.90891,
2004-06-14, 01:39:00,VALID,917.732,VALID,0,VALID,92.5156,VALID,0,VALID,17.8284,VALID,114,VALID,1.86538,
2004-06-14, 01:40:00,VALID,917.715,VALID,0,VALID,92.8475,VALID,0,VALID,17.7991,VALID,105,VALID,1.74455,
2004-06-14, 01:41:00,VALID,917.706,VALID,0,VALID,92.9568,VALID,0,VALID,17.7703,VALID,109,VALID,1.49964,
2004-06-14, 01:42:00,VALID,917.677,VALID,0,VALID,93.0878,VALID,-0.0339617,VALID,17.7413,VALID,104,VALID,1.5498,
2004-06-14, 01:43:00,VALID,917.64,VALID,0,VALID,93.1908,VALID,0,VALID,17.732,VALID,108,VALID,1.52973,
2004-06-14, 01:44:00,VALID,917.608,VALID,0,VALID,93.6562,VALID,-0.0169808,VALID,17.6868,VALID,108,VALID,1.7026,
2004-06-14, 01:45:00,VALID,917.608,VALID,0,VALID,94.0072,VALID,0,VALID,17.6642,VALID,109,VALID,1.55682,
2004-06-14, 01:46:00,VALID,917.596,VALID,0,VALID,94.2145,VALID,0,VALID,17.6119,VALID,108,VALID,1.55487,
2004-06-14, 01:47:00,VALID,917.586,VALID,0,VALID,94.423,VALID,0,VALID,17.5674,VALID,104,VALID,1.44253,
2004-06-14, 01:48:00,VALID,917.569,VALID,0,VALID,94.4637,VALID,0,VALID,17.522,VALID,107,VALID,1.42515,
2004-06-14, 01:49:00,VALID,917.567,VALID,0,VALID,94.3543,VALID,0.0169808,VALID,17.4895,VALID,101,VALID,1.47202,
2004-06-14, 01:50:00,VALID,917.563,VALID,0,VALID,94.2691,VALID,0,VALID,17.4895,VALID,104,VALID,1.47923,
2004-06-14, 01:51:00,VALID,917.555,VALID,0,VALID,93.9818,VALID,0,VALID,17.5252,VALID,105,VALID,1.58822,
2004-06-14, 01:52:00,VALID,917.534,VALID,0,VALID,93.2811,VALID,-0.0169808,VALID,17.5928,VALID,114,VALID,1.71218,
2004-06-14, 01:53:00,VALID,917.51,VALID,0,VALID,92.6822,VALID,0,VALID,17.6573,VALID,114,VALID,1.65643,
2004-06-14, 01:54:00,VALID,917.479,VALID,0,VALID,92.3999,VALID,0,VALID,17.6991,VALID,112,VALID,1.46665,
2004-06-14, 01:55:00,VALID,917.43,VALID,0,VALID,92.1621,VALID,0.0169808,VALID,17.6931,VALID,111,VALID,1.54219,
2004-06-14, 01:56:00,VALID,917.411,VALID,0,VALID,91.7463,VALID,0.0169808,VALID,17.7115,VALID,99,VALID,1.58861,
2004-06-14, 01:57:00,VALID,917.38,VALID,0,VALID,91.3368,VALID,0,VALID,17.7798,VALID,103,VALID,1.2351,
2004-06-14, 01:58:00,VALID,917.377,VALID,0,VALID,91.216,VALID,0,VALID,17.806,VALID,114,VALID,1.4802,
2004-06-14, 01:59:00,VALID,917.368,VALID,0,VALID,91.4513,VALID,0,VALID,17.7931,VALID,109,VALID,1.49795,
2004-06-14, 02:00:00,VALID,917.349,VALID,0,VALID,91.7348,VALID,0,VALID,17.7609,VALID,99,VALID,1.34877,
2004-06-14, 02:01:00,VALID,917.345,VALID,0,VALID,91.7386,VALID,0,VALID,17.7281,VALID,96,VALID,1.5387,
2004-06-14, 02:02:00,VALID,917.329,VALID,0,VALID,91.5886,VALID,0,VALID,17.7606,VALID,102,VALID,1.56143,
2004-06-14, 02:03:00,VALID,917.319,VALID,0,VALID,91.3788,VALID,0,VALID,17.7901,VALID,108,VALID,1.60249,
2004-06-14, 02:04:00,VALID,917.317,VALID,0,VALID,91.1677,VALID,0,VALID,17.7733,VALID,109,VALID,1.42321,
2004-06-14, 02:05:00,VALID,917.31,VALID,0,VALID,91.3177,VALID,0.0169808,VALID,17.7609,VALID,112,VALID,1.75324,
2004-06-14, 02:06:00,VALID,917.287,VALID,0,VALID,91.3495,VALID,0,VALID,17.7383,VALID,109,VALID,1.34819,
2004-06-14, 02:07:00,VALID,917.268,VALID,0,VALID,91.497,VALID,0,VALID,17.7118,VALID,98,VALID,1.31741,
2004-06-14, 02:08:00,VALID,917.235,VALID,0,VALID,91.5403,VALID,0,VALID,17.7288,VALID,98,VALID,1.22275,
2004-06-14, 02:09:00,VALID,917.208,VALID,0,VALID,91.5504,VALID,0,VALID,17.7187,VALID,97,VALID,1.20295,
2004-06-14, 02:10:00,VALID,917.177,VALID,0,VALID,91.5479,VALID,0,VALID,17.7215,VALID,112,VALID,1.25355,
2004-06-14, 02:11:00,VALID,917.181,VALID,0,VALID,91.4983,VALID,0,VALID,17.7443,VALID,105,VALID,1.10565,
2004-06-14, 02:12:00,VALID,917.167,VALID,0,VALID,91.4869,VALID,0,VALID,17.7475,VALID,106,VALID,1.32236,
2004-06-14, 02:13:00,VALID,917.153,VALID,0,VALID,91.4093,VALID,0,VALID,17.7413,VALID,112,VALID,1.37645,
2004-06-14, 02:14:00,VALID,917.136,VALID,0,VALID,91.1397,VALID,0,VALID,17.7574,VALID,107,VALID,1.17391,
2004-06-14, 02:15:00,VALID,917.108,VALID,0,VALID,90.8956,VALID,-0.0169808,VALID,17.7604,VALID,108,VALID,1.45655,
2004-06-14, 02:16:00,VALID,917.106,VALID,0,VALID,90.523,VALID,0,VALID,17.7927,VALID,105,VALID,1.45845,
2004-06-14, 02:17:00,VALID,917.097,VALID,0,VALID,90.1326,VALID,0,VALID,17.8443,VALID,103,VALID,1.34673,
2004-06-14, 02:18:00,VALID,917.109,VALID,0,VALID,89.7867,VALID,-0.0169808,VALID,17.8897,VALID,107,VALID,1.18293,
2004-06-14, 02:19:00,VALID,917.107,VALID,0,VALID,89.5655,VALID,0,VALID,17.9188,VALID,108,VALID,0.99707,
2004-06-14, 02:20:00,VALID,917.098,VALID,0,VALID,89.4358,VALID,0,VALID,17.9089,VALID,106,VALID,1.16722,
2004-06-14, 02:21:00,VALID,917.088,VALID,0,VALID,89.3963,VALID,0,VALID,17.9123,VALID,113,VALID,1.29433,
2004-06-14, 02:22:00,VALID,917.097,VALID,0,VALID,89.3862,VALID,-0.0169808,VALID,17.919,VALID,112,VALID,1.39935,
2004-06-14, 02:23:00,VALID,917.095,VALID,0,VALID,89.3862,VALID,-0.0169808,VALID,17.8992,VALID,108,VALID,1.07715,
2004-06-14, 02:24:00,VALID,917.094,VALID,0,VALID,89.6087,VALID,0,VALID,17.8538,VALID,107,VALID,1.00362,
2004-06-14, 02:25:00,VALID,917.089,VALID,0,VALID,89.9126,VALID,-0.0169808,VALID,17.7699,VALID,111,VALID,0.969922,
2004-06-14, 02:26:00,VALID,917.112,VALID,0,VALID,90.2153,VALID,-0.0169808,VALID,17.6707,VALID,122,VALID,0.952363,
2004-06-14, 02:27:00,VALID,917.138,VALID,0,VALID,91.2427,VALID,0,VALID,17.5313,VALID,120,VALID,0.996299,
2004-06-14, 02:28:00,VALID,917.149,VALID,0,VALID,92.0743,VALID,-0.0169808,VALID,17.4473,VALID,118,VALID,1.17347,
2004-06-14, 02:29:00,VALID,917.151,VALID,0,VALID,92.4571,VALID,-0.0169808,VALID,17.3931,VALID,110,VALID,1.08296,
2004-06-14, 02:30:00,VALID,917.148,VALID,0,VALID,92.4189,VALID,0,VALID,17.3669,VALID,94,VALID,1.04208,
2004-06-14, 02:31:00,VALID,917.152,VALID,0,VALID,92.0794,VALID,0,VALID,17.3507,VALID,84,VALID,1.06214,
2004-06-14, 02:32:00,VALID,917.167,VALID,0,VALID,92.1417,VALID,0,VALID,17.312,VALID,87,VALID,1.35714,
2004-06-14, 02:33:00,VALID,917.161,VALID,0,VALID,92.4635,VALID,-0.0169808,VALID,17.3122,VALID,91,VALID,1.25991,
2004-06-14, 02:34:00,VALID,917.166,VALID,0,VALID,92.3935,VALID,0,VALID,17.2991,VALID,94,VALID,1.25763,
2004-06-14, 02:35:00,VALID,917.168,VALID,0,VALID,91.6712,VALID,0,VALID,17.3254,VALID,98,VALID,1.3331,
2004-06-14, 02:36:00,VALID,917.171,VALID,0,VALID,90.5319,VALID,-0.0339617,VALID,17.4798,VALID,99,VALID,1.26004,
2004-06-14, 02:37:00,VALID,917.177,VALID,0,VALID,89.905,VALID,0,VALID,17.6251,VALID,93,VALID,1.03161,
2004-06-14, 02:38:00,VALID,917.158,VALID,0,VALID,89.6634,VALID,-0.0169808,VALID,17.6866,VALID,115,VALID,0.813772,
2004-06-14, 02:39:00,VALID,917.141,VALID,0,VALID,89.7677,VALID,-0.0339617,VALID,17.6184,VALID,124,VALID,0.901296,
2004-06-14, 02:40:00,VALID,917.132,VALID,0,VALID,90.2521,VALID,-0.0169808,VALID,17.4865,VALID,126,VALID,0.643483,
2004-06-14, 02:41:00,VALID,917.151,VALID,0,VALID,90.7188,VALID,0,VALID,17.3381,VALID,112,VALID,1.11293,
2004-06-14, 02:42:00,VALID,917.154,VALID,0,VALID,91.5339,VALID,-0.0339617,VALID,17.1412,VALID,96,VALID,0.740854,
2004-06-14, 02:43:00,VALID,917.168,VALID,0,VALID,92.7114,VALID,-0.0339617,VALID,16.9734,VALID,101,VALID,0.755208,
2004-06-14, 02:44:00,VALID,917.145,VALID,0,VALID,93.9398,VALID,-0.0509425,VALID,16.8506,VALID,102,VALID,0.876116,
2004-06-14, 02:45:00,VALID,917.145,VALID,0,VALID,94.7854,VALID,-0.0169808,VALID,16.8153,VALID,99,VALID,0.844993,
2004-06-14, 02:46:00,VALID,917.118,VALID,0,VALID,94.5858,VALID,0,VALID,16.8413,VALID,100,VALID,0.583212,
2004-06-14, 02:47:00,VALID,917.104,VALID,0,VALID,94.2323,VALID,-0.0339617,VALID,16.8252,VALID,124,VALID,0.861607,
2004-06-14, 02:48:00,VALID,917.094,VALID,0,VALID,94.3785,VALID,0,VALID,16.754,VALID,135,VALID,1.09108,
2004-06-14, 02:49:00,VALID,917.064,VALID,0,VALID,95.0435,VALID,-0.0169808,VALID,16.7249,VALID,134,VALID,1.39253,
2004-06-14, 02:50:00,VALID,917.034,VALID,0,VALID,94.9253,VALID,-0.0169808,VALID,16.7893,VALID,131,VALID,1.46074,
2004-06-14, 02:51:00,VALID,917.014,VALID,0,VALID,94.3645,VALID,0,VALID,16.8897,VALID,125,VALID,1.54935,
2004-06-14, 02:52:00,VALID,917.003,VALID,0,VALID,93.3828,VALID,-0.0339617,VALID,16.9999,VALID,102,VALID,1.22838,
2004-06-14, 02:53:00,VALID,917.019,VALID,0,VALID,92.5881,VALID,-0.0169808,VALID,17.0027,VALID,82,VALID,0.687314,
2004-06-14, 02:54:00,VALID,917.029,VALID,0,VALID,93.5176,VALID,-0.0339617,VALID,16.9573,VALID,91,VALID,0.753906,
2004-06-14, 02:55:00,VALID,917.016,VALID,0,VALID,93.5609,VALID,-0.0169808,VALID,16.8996,VALID,117,VALID,0.791243,
2004-06-14, 02:56:00,VALID,917.012,VALID,0,VALID,93.9258,VALID,0,VALID,16.8613,VALID,124,VALID,1.33519,
2004-06-14, 02:57:00,VALID,916.995,VALID,0,VALID,93.9093,VALID,-0.0509425,VALID,16.8482,VALID,125,VALID,1.3125,
2004-06-14, 02:58:00,VALID,916.998,VALID,0,VALID,93.7401,VALID,0,VALID,16.8439,VALID,125,VALID,1.25927,
2004-06-14, 02:59:00,VALID,917.002,VALID,0,VALID,93.6346,VALID,-0.0339617,VALID,16.8676,VALID,126,VALID,1.27113,
2004-06-14, 03:00:00,VALID,916.998,VALID,0,VALID,93.5761,VALID,-0.0169808,VALID,16.8443,VALID,130,VALID,1.2862,
2004-06-14, 03:01:00,VALID,916.989,VALID,0,VALID,93.6931,VALID,-0.0169808,VALID,16.8123,VALID,125,VALID,1.31922,
2004-06-14, 03:02:00,VALID,916.983,VALID,0,VALID,93.8253,VALID,-0.0339617,VALID,16.7839,VALID,126,VALID,1.53379,
2004-06-14, 03:03:00,VALID,916.99,VALID,0,VALID,94.0542,VALID,-0.0169808,VALID,16.751,VALID,129,VALID,1.60231,
2004-06-14, 03:04:00,VALID,916.979,VALID,0,VALID,94.1115,VALID,-0.0339617,VALID,16.7443,VALID,123,VALID,1.77753,
2004-06-14, 03:05:00,VALID,916.98,VALID,0,VALID,93.9093,VALID,-0.0169808,VALID,16.7867,VALID,119,VALID,1.69102,
2004-06-14, 03:06:00,VALID,916.992,VALID,0,VALID,93.2404,VALID,-0.0339617,VALID,16.8766,VALID,123,VALID,1.49867,
2004-06-14, 03:07:00,VALID,917.01,VALID,0,VALID,92.7547,VALID,-0.0169808,VALID,16.9444,VALID,125,VALID,1.5169,
2004-06-14, 03:08:00,VALID,916.992,VALID,0,VALID,92.7597,VALID,-0.0169808,VALID,16.9674,VALID,122,VALID,1.70538,
2004-06-14, 03:09:00,VALID,916.986,VALID,0,VALID,92.8017,VALID,-0.0679233,VALID,17.0065,VALID,121,VALID,1.8544,
2004-06-14, 03:10:00,VALID,916.955,VALID,0,VALID,92.5576,VALID,0,VALID,17.0448,VALID,122,VALID,2.02877,
2004-06-14, 03:11:00,VALID,916.934,VALID,0,VALID,92.2905,VALID,-0.0509425,VALID,17.1229,VALID,121,VALID,1.97321,
2004-06-14, 03:12:00,VALID,916.906,VALID,0,VALID,91.6382,VALID,-0.0509425,VALID,17.1898,VALID,119,VALID,1.50857,
2004-06-14, 03:13:00,VALID,916.884,VALID,0,VALID,91.3495,VALID,-0.0339617,VALID,17.2673,VALID,127,VALID,1.60156,
2004-06-14, 03:14:00,VALID,916.872,VALID,0,VALID,91.2707,VALID,-0.0169808,VALID,17.2866,VALID,127,VALID,1.38499,
2004-06-14, 03:15:00,VALID,916.873,VALID,0,VALID,91.3877,VALID,-0.0339617,VALID,17.2219,VALID,124,VALID,1.61068,
2004-06-14, 03:16:00,VALID,916.874,VALID,0,VALID,91.703,VALID,0,VALID,17.1511,VALID,124,VALID,1.44158,
2004-06-14, 03:17:00,VALID,916.859,VALID,0,VALID,91.9879,VALID,-0.0339617,VALID,17.0967,VALID,124,VALID,1.69494,
2004-06-14, 03:18:00,VALID,916.834,VALID,0,VALID,92.2282,VALID,-0.0679233,VALID,17.0771,VALID,113,VALID,1.56068,
2004-06-14, 03:19:00,VALID,916.822,VALID,0,VALID,92.0298,VALID,-0.0339617,VALID,17.0902,VALID,102,VALID,1.25248,
2004-06-14, 03:20:00,VALID,916.81,VALID,0,VALID,92.1405,VALID,-0.0169808,VALID,17.0939,VALID,99,VALID,1.32927,
2004-06-14, 03:21:00,VALID,916.804,VALID,0,VALID,91.7285,VALID,-0.0169808,VALID,17.1322,VALID,115,VALID,0.991319,
2004-06-14, 03:22:00,VALID,916.793,VALID,0,VALID,91.5174,VALID,-0.0339617,VALID,17.1446,VALID,126,VALID,1.15334,
2004-06-14, 03:23:00,VALID,916.791,VALID,0,VALID,91.8391,VALID,-0.0339617,VALID,17.1057,VALID,126,VALID,1.54415,
2004-06-14, 03:24:00,VALID,916.768,VALID,0,VALID,92.2918,VALID,-0.0339617,VALID,17.0285,VALID,127,VALID,1.60991,
2004-06-14, 03:25:00,VALID,916.766,VALID,0,VALID,92.4787,VALID,-0.0509425,VALID,16.9996,VALID,127,VALID,1.71146,
2004-06-14, 03:26:00,VALID,916.749,VALID,0,VALID,92.3566,VALID,0,VALID,16.9835,VALID,121,VALID,1.8306,
2004-06-14, 03:27:00,VALID,916.74,VALID,0,VALID,92.1761,VALID,-0.0509425,VALID,17.0029,VALID,121,VALID,1.56027,
2004-06-14, 03:28:00,VALID,916.736,VALID,0,VALID,92.0209,VALID,-0.0169808,VALID,16.9799,VALID,116,VALID,1.14878,
2004-06-14, 03:29:00,VALID,916.745,VALID,0,VALID,92.0158,VALID,-0.0339617,VALID,16.9351,VALID,105,VALID,0.988554,
2004-06-14, 03:30:00,VALID,916.77,VALID,0,VALID,91.9968,VALID,-0.0169808,VALID,16.8155,VALID,85,VALID,0.506177,
2004-06-14, 03:31:00,VALID,916.781,VALID,0,VALID,92.644,VALID,-0.0169808,VALID,16.6643,VALID,64,VALID,0.639482,
2004-06-14, 03:32:00,VALID,916.78,VALID,0,VALID,93.1934,VALID,-0.0679233,VALID,16.5096,VALID,57,VALID,0.68125,
2004-06-14, 03:33:00,VALID,916.765,VALID,0,VALID,93.9449,VALID,-0.0339617,VALID,16.3965,VALID,57,VALID,0.655185,